FW9330 Weather Reports


Display with metric or nautical units.
time (UTC)temp
F
wind
direction
speed
MPH
gust
MPH
rain 1hr
in
rain 24hr
in
rain mn
in
humidity
%
barometer
mb
20260504175635 69 276 4.0 8.0 0.00 0.00 0.00 49 1011.7
20260504175131 68 258 4.0 6.0 0.00 0.00 0.00 48 1011.6
20260504174630 68 223 3.0 5.0 0.00 0.00 0.00 48 1011.9
20260504174126 69 294 2.0 2.0 0.00 0.00 0.00 48 1012.1
20260504173623 68 243 6.0 10.0 0.00 0.00 0.00 48 1012.0
20260504173121 68 273 6.0 8.0 0.00 0.00 0.00 48 1012.1
20260504172617 68 234 6.0 8.0 0.00 0.00 0.00 48 1011.9
20260504172114 68 219 2.0 3.0 0.00 0.00 0.00 50 1012.2
20260504171610 68 276 4.0 7.0 0.00 0.00 0.00 49 1012.2
20260504171108 67 221 6.0 8.0 0.00 0.00 0.00 49 1012.4
20260504170603 67 275 6.0 8.0 0.00 0.00 0.00 48 1012.4
20260504150947 62 262 4.0 6.0 0.00 0.00 0.00 53 1013.3
20260504150444 61 197 2.0 3.0 0.00 0.00 0.00 53 1013.3
20260504140910 58 270 2.0 2.0 0.00 0.00 0.00 56 1013.9
20260504140406 57 191 3.0 6.0 0.00 0.00 0.00 58 1013.7
20260504130331 52 264 2.0 3.0 0.00 0.00 0.00 62 1014.1
20260504120254 46 282 1.0 1.0 0.00 0.00 0.00 70 1014.0
20260504110218 41 267 0.0 0.0 0.00 0.00 0.00 80 1014.1
20260504100142 39 264 0.0 0.0 0.00 0.00 0.00 79 1014.2
20260504090105 42 256 0.0 0.0 0.00 0.00 0.00 75 1014.8
20260504081535 41 265 0.0 0.0 0.00 0.00 0.00 75 1014.8
20260504081031 40 271 0.0 0.0 0.00 0.00 0.00 76 1014.5
20260504080527 39 255 0.0 0.0 0.00 0.00 0.00 78 1014.9
20260504050340 37 270 0.0 0.0 0.00 0.00 0.00 82 1015.7
20260504045837 37 270 0.0 0.0 0.00 0.00 0.00 81 1015.6
20260504045332 37 270 0.0 0.0 0.00 0.00 0.00 81 1015.6
20260504044829 37 270 0.0 0.0 0.00 0.00 0.00 81 1015.7
20260504044327 37 270 0.0 0.0 0.00 0.00 0.00 80 1015.5
20260504043824 38 270 0.0 0.0 0.00 0.00 0.00 80 1015.6
20260504043321 38 270 0.0 0.0 0.00 0.00 0.00 79 1015.6
20260504042818 38 270 0.0 0.0 0.00 0.00 0.00 78 1015.6
20260504042314 39 270 0.0 0.0 0.00 0.00 0.00 76 1015.5
20260504041811 40 270 0.0 0.0 0.00 0.00 0.00 74 1015.5
20260504041307 40 270 0.0 0.0 0.00 0.00 0.00 73 1015.4
20260504040803 40 263 0.0 0.0 0.00 0.00 0.00 72 1015.4
20260504040301 40 265 0.0 0.0 0.00 0.00 0.00 72 1015.3
20260504035756 40 270 0.0 0.0 0.00 0.00 0.00 74 1015.3
20260504035254 40 269 0.0 0.0 0.00 0.00 0.00 73 1015.5
20260504034751 40 276 1.0 1.0 0.00 0.00 0.00 72 1015.8
20260504034249 39 265 0.0 0.0 0.00 0.00 0.00 76 1015.5
20260504033746 39 265 0.0 0.0 0.00 0.00 0.00 76 1015.6
20260504033243 39 265 0.0 0.0 0.00 0.00 0.00 76 1015.4
20260504032740 40 263 0.0 0.0 0.00 0.00 0.00 75 1015.5
20260504032237 40 265 0.0 0.0 0.00 0.00 0.00 74 1015.7
20260504031734 40 265 0.0 0.0 0.00 0.00 0.00 74 1015.4
20260504031232 41 267 0.0 0.0 0.00 0.00 0.00 73 1015.5
20260504030727 41 268 0.0 0.0 0.00 0.00 0.00 72 1015.6
20260504030225 41 268 0.0 0.0 0.00 0.00 0.00 72 1015.7
20260504025721 41 268 0.0 0.0 0.00 0.00 0.00 70 1015.8
20260504025218 42 268 0.0 0.0 0.00 0.00 0.00 70 1015.5
20260504024715 42 266 0.0 0.0 0.00 0.00 0.00 69 1015.6
20260504024211 42 266 0.0 0.0 0.00 0.00 0.00 69 1015.6
20260504023708 42 260 1.0 1.0 0.00 0.00 0.00 69 1015.7
20260504023204 42 267 0.0 0.0 0.00 0.00 0.00 70 1015.7
20260504022700 42 268 0.0 0.0 0.00 0.00 0.00 69 1015.7
20260504022156 42 273 2.0 2.0 0.00 0.00 0.00 70 1015.8
20260504021654 42 263 0.0 0.0 0.00 0.00 0.00 71 1015.7
20260504021151 42 263 0.0 0.0 0.00 0.00 0.00 72 1015.7
20260504020648 42 263 0.0 0.0 0.00 0.00 0.00 70 1015.6
20260504020143 42 264 0.0 0.0 0.00 0.00 0.00 69 1016.0
20260504015641 42 263 0.0 0.0 0.00 0.00 0.00 68 1015.8
20260504015137 43 264 0.0 0.0 0.00 0.00 0.00 69 1015.7
20260504014632 43 264 0.0 0.0 0.00 0.00 0.00 68 1015.8
20260504014130 43 260 0.0 0.0 0.00 0.00 0.00 66 1015.5
20260504013628 43 261 0.0 0.0 0.00 0.00 0.00 68 1015.6
20260504013124 43 261 0.0 0.0 0.00 0.00 0.00 66 1015.6
20260504012622 44 260 0.0 0.0 0.00 0.00 0.00 66 1015.5
20260504012120 44 262 0.0 0.0 0.00 0.00 0.00 66 1015.6
20260504011616 44 263 0.0 0.0 0.00 0.00 0.00 66 1015.3
20260504011113 45 261 0.0 0.0 0.00 0.00 0.00 64 1015.4
20260504010608 45 260 0.0 0.0 0.00 0.00 0.00 63 1015.5
20260504010105 45 257 1.0 1.0 0.00 0.00 0.00 61 1015.4
20260504005601 45 252 0.0 0.0 0.00 0.00 0.00 62 1015.5
20260504005059 46 264 0.0 0.0 0.00 0.00 0.00 61 1015.5
20260504004556 47 262 0.0 0.0 0.00 0.00 0.00 60 1015.5
20260504004053 47 260 0.0 0.0 0.00 0.00 0.00 59 1015.5
20260504003549 48 267 0.0 0.0 0.00 0.00 0.00 57 1015.3
20260504003046 48 267 1.0 1.0 0.00 0.00 0.00 55 1015.4
20260504002543 48 275 1.0 1.0 0.00 0.00 0.00 55 1015.4
20260504002041 48 275 0.0 1.0 0.00 0.00 0.00 56 1015.5
20260504001538 48 269 1.0 1.0 0.00 0.00 0.00 54 1015.4
20260504001034 49 204 2.0 3.0 0.00 0.00 0.00 54 1015.2
20260504000531 49 245 1.0 1.0 0.00 0.00 0.00 54 1015.2
20260504000029 49 249 1.0 2.0 0.00 0.00 0.00 53 1015.2
20260503235527 49 270 1.0 2.0 0.00 0.00 0.00 53 1015.1
20260503235023 49 277 1.0 2.0 0.00 0.00 0.00 52 1015.3
20260503234521 50 177 2.0 3.0 0.00 0.00 0.00 53 1015.3
20260503234019 50 187 3.0 5.0 0.00 0.00 0.00 52 1015.3
20260503233515 50 186 3.0 3.0 0.00 0.00 0.00 51 1015.1
20260503233011 50 277 3.0 5.0 0.00 0.00 0.00 51 1015.1
20260503232509 50 273 1.0 2.0 0.00 0.00 0.00 51 1015.0
20260503232006 51 280 0.0 1.0 0.00 0.00 0.00 50 1015.0
20260503231504 50 282 3.0 5.0 0.00 0.00 0.00 50 1015.0
20260503231000 50 266 1.0 1.0 0.00 0.00 0.00 52 1015.2
20260503230457 51 260 2.0 2.0 0.00 0.00 0.00 50 1015.2
20260503225954 51 206 3.0 3.0 0.00 0.00 0.00 50 1015.3
20260503225451 52 265 2.0 3.0 0.00 0.00 0.00 49 1015.3
20260503224946 52 268 2.0 2.0 0.00 0.00 0.00 49 1015.2
20260503224444 51 274 5.0 7.0 0.00 0.00 0.00 49 1015.4
20260503223941 51 267 3.0 7.0 0.00 0.00 0.00 49 1015.4
20260503223439 52 276 1.0 1.0 0.00 0.00 0.00 48 1015.3
20260503222934 52 251 2.0 2.0 0.00 0.00 0.00 48 1015.3
20260503222433 53 227 4.0 5.0 0.00 0.00 0.00 46 1015.2
20260503221931 54 284 1.0 2.0 0.00 0.00 0.00 45 1015.1
20260503221429 54 283 4.0 6.0 0.00 0.00 0.00 46 1015.3
20260503220926 53 269 1.0 2.0 0.00 0.00 0.00 47 1015.2
20260503220422 54 194 3.0 3.0 0.00 0.00 0.00 46 1015.2
20260503215919 54 270 1.0 2.0 0.00 0.00 0.00 47 1015.3
20260503215416 53 253 2.0 2.0 0.00 0.00 0.00 47 1015.2
20260503214914 54 211 3.0 5.0 0.00 0.00 0.00 46 1015.1
20260503214411 53 269 2.0 2.0 0.00 0.00 0.00 48 1015.4
20260503213908 53 231 5.0 7.0 0.00 0.00 0.00 46 1015.4
20260503213406 53 272 2.0 2.0 0.00 0.00 0.00 46 1015.1
20260503212902 53 215 2.0 2.0 0.00 0.00 0.00 47 1015.3
20260503212400 53 103 3.0 6.0 0.00 0.00 0.00 47 1015.3
20260503211857 52 266 0.0 0.0 0.00 0.00 0.00 47 1015.2
20260503211354 52 217 1.0 2.0 0.00 0.00 0.00 48 1015.4
20260503210849 52 268 2.0 2.0 0.00 0.00 0.00 47 1015.5
20260503210347 52 266 4.0 7.0 0.00 0.00 0.00 47 1015.4
20260503205841 54 256 2.0 2.0 0.00 0.00 0.00 45 1015.5
20260503205338 53 184 2.0 3.0 0.00 0.00 0.00 46 1015.4
20260503204835 52 253 3.0 5.0 0.00 0.00 0.00 47 1015.3
20260503204332 52 208 1.0 2.0 0.00 0.00 0.00 48 1015.6
20260503203829 52 256 5.0 8.0 0.00 0.00 0.00 47 1015.5
20260503203327 53 246 3.0 3.0 0.00 0.00 0.00 46 1015.3
20260503202824 53 248 3.0 5.0 0.00 0.00 0.00 47 1015.8
20260503202322 52 275 1.0 1.0 0.00 0.00 0.00 47 1015.5
20260503201820 52 289 2.0 3.0 0.00 0.00 0.00 47 1015.5
20260503201316 53 190 2.0 3.0 0.00 0.00 0.00 46 1015.8
20260503200814 53 262 3.0 5.0 0.00 0.00 0.00 47 1015.7
20260503200309 51 199 4.0 5.0 0.00 0.00 0.00 47 1015.6
20260503195807 52 298 2.0 2.0 0.00 0.00 0.00 47 1015.7
20260503195304 52 357 2.0 3.0 0.00 0.00 0.00 47 1015.7
20260503194801 53 276 1.0 2.0 0.00 0.00 0.00 49 1015.9
20260503194256 54 226 3.0 3.0 0.00 0.00 0.00 46 1015.8
20260503193753 53 211 2.0 3.0 0.00 0.00 0.00 46 1016.0
20260503193249 53 266 3.0 3.0 0.00 0.00 0.00 45 1016.2
20260503192745 55 143 3.0 5.0 0.00 0.00 0.00 45 1016.1
20260503192240 54 269 4.0 7.0 0.00 0.00 0.00 44 1016.4
20260503191737 52 278 2.0 2.0 0.00 0.00 0.00 49 1016.1
20260503191234 51 295 2.0 3.0 0.00 0.00 0.00 48 1016.2
20260503190731 52 280 2.0 3.0 0.00 0.00 0.00 45 1016.2
20260503190228 52 138 2.0 6.0 0.00 0.00 0.00 46 1016.5
20260503185725 51 237 1.0 2.0 0.00 0.00 0.00 48 1016.4
20260503185220 51 238 2.0 3.0 0.00 0.00 0.00 49 1016.4
20260503184715 51 301 0.0 1.0 0.00 0.00 0.00 49 1016.7
20260503184212 51 314 3.0 5.0 0.00 0.00 0.00 47 1016.4
20260503183708 53 250 5.0 7.0 0.00 0.00 0.00 46 1016.7
20260503183206 52 193 3.0 6.0 0.00 0.00 0.00 50 1016.8
20260503182704 51 244 3.0 5.0 0.00 0.00 0.00 46 1016.8
20260503182202 52 280 3.0 3.0 0.00 0.00 0.00 47 1016.7
20260503181658 52 253 5.0 7.0 0.00 0.00 0.00 46 1016.8
20260503181155 51 182 4.0 6.0 0.00 0.00 0.00 48 1016.7
20260503180652 52 320 2.0 2.0 0.00 0.00 0.00 50 1017.0
20260503180150 52 11 2.0 3.0 0.00 0.00 0.00 49 1016.8